GEFSMW_con_prob3kmehi_174.txt.gz
EHI
9 11 14 18 26 32 32 32 32 33 35 34 30 29 26 23 24 25 21 18 17 16 15 15 17 19 19 18 16 12 8 10 11 9 6 4 2 1 1 1 0 1 1
10 11 12 15 21 26 27 28 29 30 31 31 29 29 27 25 24 23 20 16 14 15 15 17 20 21 20 18 16 13 9 8 9 8 5 4 2 1 1 0 0 0 1
10 9 10 11 15 19 20 21 24 26 27 26 24 24 25 24 22 20 17 14 13 14 16 19 22 23 20 18 17 15 11 9 9 7 4 3 2 1 1 0 0 1 1
10 9 9 10 11 14 16 17 21 24 24 22 19 18 19 20 19 18 16 14 12 12 14 17 20 21 20 19 18 17 14 13 10 5 3 2 2 2 2 1 1 1 2
10 9 8 8 9 10 12 15 19 21 21 19 17 16 17 18 18 17 16 15 13 10 10 13 16 18 19 19 19 17 15 12 8 5 4 3 3 3 2 1 1 1 1
11 9 7 6 6 6 9 12 14 17 18 17 16 16 17 18 17 16 15 14 13 10 9 10 13 15 17 17 17 15 11 9 7 6 5 4 4 3 2 1 0 0 1
11 9 7 5 5 5 7 9 11 13 15 16 18 18 18 18 16 14 14 13 13 11 9 9 11 13 15 15 14 12 9 7 7 7 6 5 4 3 2 1 0 1 2
10 9 8 6 6 7 8 9 10 12 14 16 18 18 18 18 16 14 12 12 11 9 8 8 8 11 12 11 9 8 8 8 8 7 6 6 4 4 3 1 0 1 2
9 10 9 8 8 8 7 8 9 11 13 15 15 15 15 15 15 13 11 9 8 6 5 6 6 7 8 7 6 7 8 9 9 8 7 6 5 4 4 2 0 0 1
9 10 10 9 9 7 4 5 8 10 11 13 12 12 13 11 10 10 8 7 6 4 3 4 6 6 6 5 5 6 7 8 8 7 6 5 4 5 5 4 1 0 0
7 9 9 9 8 5 2 2 5 7 9 11 10 10 10 8 8 8 7 6 6 4 3 4 6 6 6 5 5 5 5 5 5 5 4 4 4 4 5 4 2 0 0
4 7 8 8 8 5 2 2 3 5 6 8 7 7 6 6 7 8 7 6 6 4 3 4 5 5 4 4 3 2 2 2 3 3 3 3 3 3 3 3 1 1 1
3 5 7 7 6 4 2 2 3 3 3 4 3 3 3 3 4 6 6 6 6 5 4 3 4 4 3 3 2 1 1 2 3 3 3 3 1 1 2 1 0 0 0
5 5 6 6 4 2 2 3 2 1 1 1 1 1 1 1 2 3 4 5 6 5 4 3 3 3 3 3 3 2 2 3 3 3 3 2 1 0 0 0 0 0 0
5 4 4 4 2 0 1 2 2 1 0 0 0 0 0 0 0 1 2 4 5 5 4 3 3 2 3 3 2 3 3 3 3 2 2 1 0 0 0 0 0 0 0
3 2 2 1 1 0 1 1 1 0 0 0 0 0 0 0 0 1 2 4 5 6 5 4 4 3 2 1 1 3 3 3 2 1 0 0 0 0 0 0 0 0 0
2 1 1 1 1 1 0 0 0 0 0 0 0 0 0 0 0 1 3 4 5 6 6 6 5 3 1 0 1 2 3 4 3 1 0 0 0 0 0 0 0 0 0
1 1 1 2 2 1 0 0 0 0 0 0 0 0 0 0 0 1 3 3 4 5 6 6 5 4 2 0 0 1 3 4 3 2 1 0 0 0 0 0 0 0 0
0 0 1 1 1 1 0 0 0 0 0 0 0 0 0 0 0 1 2 2 3 3 4 4 4 4 3 1 0 0 1 2 3 2 1 0 0 0 0 0 0 0 0
0 0 0 0 0 0 1 1 0 0 0 0 0 0 0 0 0 0 1 1 2 3 2 1 2 3 3 1 0 0 0 1 1 1 0 0 0 0 0 0 0 0 0
0 0 0 0 0 1 2 1 1 0 0 0 0 0 0 0 0 0 0 1 2 3 2 1 1 2 1 0 0 0 0 0 0 0 0 0 0 0 0 0 0 0 0
0 0 0 0 0 1 2 1 1 1 0 0 0 0 0 0 0 0 0 1 2 3 2 2 1 1 0 0 0 0 0 0 0 0 0 0 0 0 0 0 0 0 0
0 0 0 0 0 1 1 1 0 0 0 0 0 0 0 0 0 0 0 0 1 1 2 1 1 0 0 0 0 0 0 0 0 0 0 0 0 0 0 0 0 0 0
0 0 0 0 1 1 1 0 0 0 0 0 1 0 0 0 0 0 0 0 0 0 0 0 0 0 0 0 0 0 0 0 0 0 0 0 0 0 0 0 0 0 0
0 0 0 0 1 1 0 0 0 0 0 0 0 0 0 0 0 0 0 0 0 0 0 0 0 0 0 0 0 0 0 0 0 0 0 0 0 0 0 0 0 0 0
0 0 0 0 1 0 0 0 0 0 0 0 0 0 0 0 0 0 0 0 0 0 0 0 0 0 0 0 0 0 0 0 0 0 0 0 0 0 0 0 0 0 0

GEFSMW_con_prob3kmehi_180.txt.gz
EHI
26 28 30 35 42 49 51 52 53 50 48 49 50 46 40 38 36 34 35 35 35 35 35 34 32 29 27 26 26 25 22 17 12 8 4 1 1 2 3 5 4 1 0
27 26 27 31 38 45 46 47 48 47 46 47 47 41 36 33 33 33 34 33 32 32 32 32 32 29 27 26 26 24 20 16 13 11 6 2 1 1 3 5 4 1 0
27 24 22 26 33 39 42 43 44 42 40 40 38 35 33 33 34 35 34 31 30 30 31 31 31 29 28 27 26 23 19 14 12 11 9 4 2 1 4 6 4 2 2
27 24 21 23 29 34 39 42 43 39 35 33 32 31 32 33 34 35 34 32 31 30 30 30 29 28 27 26 25 22 18 13 10 10 9 6 3 2 3 4 4 4 4
23 21 20 23 28 32 36 39 39 35 31 29 29 28 28 28 28 30 32 32 31 29 28 27 26 24 21 21 22 20 17 13 11 10 10 7 4 3 2 2 3 3 3
17 17 18 23 27 30 32 33 32 28 25 25 26 25 24 23 22 25 28 29 27 26 25 23 21 19 16 16 16 15 14 13 12 11 10 8 5 3 3 2 2 1 1
12 13 16 20 23 25 27 28 27 23 20 21 23 23 21 19 19 20 21 21 19 19 19 18 16 15 13 12 10 10 11 11 10 9 8 7 5 3 3 3 1 0 0
12 11 12 15 18 21 22 23 22 20 19 18 19 19 16 14 14 14 14 13 12 12 13 13 12 12 10 9 8 9 9 9 8 7 7 5 4 4 3 2 1 0 0
12 11 10 12 16 18 18 17 17 17 16 14 14 14 13 12 11 10 10 10 9 9 10 10 9 8 7 6 7 8 8 7 7 6 6 4 4 4 3 1 0 0 0
12 11 10 12 14 15 14 12 12 13 12 11 11 10 9 9 9 9 9 8 8 9 8 7 5 5 4 4 5 7 7 6 6 6 5 4 3 3 2 0 0 0 0
11 11 10 10 12 12 11 9 8 7 7 7 8 8 6 5 7 9 8 7 7 6 5 3 2 2 3 3 4 5 6 6 5 4 4 3 3 3 2 1 1 1 0
10 8 8 8 8 9 9 7 4 3 4 4 4 5 4 4 6 7 7 6 6 4 2 2 2 1 2 3 3 4 5 5 4 3 3 3 3 3 3 3 2 2 1
6 5 4 5 5 6 6 5 3 2 3 3 3 3 3 3 4 5 5 5 5 2 1 2 1 1 1 2 3 3 4 4 3 3 3 3 3 3 3 3 3 3 3
4 2 2 3 4 5 4 3 3 3 3 3 2 2 2 2 1 2 2 3 3 2 1 2 1 1 0 1 2 3 3 3 3 3 3 3 4 3 3 3 3 3 3
2 1 1 2 4 4 3 3 3 4 3 2 1 1 1 1 0 0 1 1 2 2 2 2 3 2 1 0 1 3 3 3 3 4 3 4 4 4 3 3 3 2 1
1 1 2 3 4 4 3 3 3 3 3 1 0 0 0 0 0 0 0 1 2 2 2 2 3 2 1 0 1 2 3 4 4 5 4 5 5 4 3 2 1 1 0
2 2 2 4 5 4 3 3 2 2 2 1 0 0 0 0 1 1 0 0 2 2 1 1 2 2 1 0 0 1 3 5 6 6 6 6 5 4 2 1 0 0 0
2 2 2 3 3 3 2 1 1 1 1 1 0 0 0 1 2 1 0 0 2 2 1 1 2 2 1 0 0 1 3 5 6 6 6 6 5 3 2 0 0 0 0
2 1 1 1 1 1 1 1 1 1 1 0 0 0 0 1 1 1 0 0 1 2 2 2 2 2 1 0 0 1 3 5 6 6 5 4 3 2 1 0 0 0 0
1 0 0 0 0 1 1 2 2 2 2 1 1 0 0 0 0 0 0 0 0 2 3 3 3 2 1 0 0 1 2 4 4 4 3 1 1 1 0 0 0 0 0
0 0 0 0 1 2 3 3 3 3 3 3 2 1 1 1 0 0 0 0 1 2 3 3 3 2 1 0 0 0 1 1 1 1 1 0 0 0 0 0 0 0 0
0 0 0 0 1 2 2 3 3 3 3 3 3 3 2 2 1 0 0 0 1 2 2 3 3 2 1 0 0 0 0 0 0 0 0 0 0 0 0 0 0 0 0
0 0 0 0 0 1 1 1 2 3 3 3 2 2 3 3 2 1 0 0 0 1 1 1 2 2 1 0 0 0 0 0 0 0 0 0 0 0 0 0 0 0 0
0 0 0 0 0 0 0 0 1 2 2 1 1 1 1 3 3 3 2 0 0 0 0 0 1 1 0 0 0 0 0 0 0 0 0 0 0 0 0 0 0 0 0
0 0 0 0 0 0 0 0 0 1 1 0 0 0 1 2 3 3 3 1 0 0 0 0 0 0 0 0 0 0 0 0 0 0 0 0 0 0 0 0 0 0 0
0 0 0 0 0 0 0 0 0 0 0 0 0 0 0 1 1 2 2 1 0 0 0 0 0 0 0 0 0 0 0 0 0 0 0 0 0 0 0 0 0 0 0

GEFSMW_con_prob3kmehi_186.txt.gz
EHI
25 25 23 22 23 23 19 14 13 14 13 13 15 15 13 12 12 13 14 15 15 15 16 15 14 12 10 8 6 3 1 0 1 2 1 1 0 0 0 0 0 0 0
20 20 19 19 21 20 16 12 11 12 12 11 12 12 11 11 11 12 13 14 15 16 16 14 12 12 10 8 7 4 1 1 2 4 3 2 1 0 0 0 0 0 0
14 14 14 13 15 14 11 10 9 9 9 9 10 10 9 9 9 10 11 13 14 16 16 13 11 11 11 10 8 6 3 2 3 5 5 3 1 0 0 0 0 0 0
9 10 9 8 8 8 8 8 8 7 7 7 8 9 9 9 8 7 9 10 11 12 13 12 10 11 11 10 9 8 6 4 4 5 5 2 0 0 0 0 0 0 0
7 6 4 4 4 5 6 7 7 6 5 5 6 7 7 7 6 6 7 8 8 8 9 9 8 7 9 9 9 9 7 6 4 4 4 3 1 1 1 0 0 0 0
6 4 2 2 3 4 5 6 6 5 3 3 3 4 4 3 3 3 4 5 5 4 4 5 4 3 3 6 8 8 7 6 5 4 4 3 3 2 2 1 0 0 0
4 3 2 3 3 3 4 4 4 3 2 1 1 1 1 1 1 1 2 2 1 1 1 2 2 0 0 2 4 5 5 4 4 4 4 3 3 3 3 2 0 0 0
3 2 2 3 3 3 4 4 4 3 1 0 0 0 0 0 0 1 1 0 0 0 0 0 0 0 0 0 1 3 3 3 3 4 3 3 3 3 3 1 0 0 0
2 1 1 3 3 4 5 4 3 3 2 1 0 0 0 0 0 0 0 0 0 0 0 0 0 0 0 0 0 1 2 3 3 3 3 3 3 3 2 1 0 0 0
1 0 1 2 3 4 4 4 3 3 2 1 0 0 0 0 0 0 0 0 0 0 0 0 0 0 0 0 0 0 1 2 2 3 3 3 3 3 3 1 0 0 0
0 0 1 3 3 3 4 3 3 3 1 0 0 0 0 0 0 1 0 0 0 0 0 0 0 0 0 0 0 0 0 1 1 1 2 2 3 4 3 1 0 0 0
0 0 1 3 3 3 3 3 3 2 1 0 0 0 0 0 0 0 0 0 0 0 0 0 0 0 0 0 0 0 0 0 0 0 1 1 2 3 3 2 0 0 0
0 0 0 2 3 3 3 2 2 1 0 0 0 0 0 0 0 0 0 0 0 0 0 0 0 0 0 0 0 0 0 0 0 0 0 0 1 1 2 2 1 0 0
0 0 0 1 2 2 1 1 1 0 0 0 0 0 0 0 0 0 0 0 0 0 0 0 0 0 0 0 0 0 0 0 0 0 0 0 0 0 1 2 1 1 0
0 0 0 0 1 1 0 0 0 0 0 0 0 0 0 0 0 0 0 0 0 0 0 0 0 0 0 0 0 0 0 0 0 0 0 0 0 0 1 2 2 2 1
0 0 0 0 0 0 0 0 0 0 0 0 0 0 0 0 0 0 0 0 0 0 0 0 0 0 0 0 0 0 0 0 0 0 0 0 0 0 0 1 1 2 2
0 0 0 0 0 0 0 0 0 0 0 0 0 0 0 0 0 0 0 0 0 0 0 0 0 0 0 0 0 0 0 0 0 0 0 0 0 0 0 0 0 1 1
0 0 0 0 0 0 0 0 0 0 0 0 0 0 0 0 0 0 0 0 0 0 0 0 0 0 0 0 0 0 0 0 0 0 0 0 0 0 0 0 0 0 0
0 0 0 0 0 0 0 0 0 0 0 0 0 0 0 0 0 0 0 0 0 0 0 0 0 0 0 0 0 0 0 0 0 0 0 0 0 0 0 0 0 1 1
0 0 0 0 0 0 0 0 0 0 0 0 0 0 0 0 0 0 0 0 0 0 0 0 0 0 0 0 0 0 0 0 0 0 0 0 0 0 0 0 0 0 0
0 0 0 0 0 0 0 0 0 0 0 0 0 0 0 0 0 0 0 0 0 0 0 0 0 0 0 0 0 0 0 0 0 0 0 0 0 0 0 0 0 0 0
0 0 0 0 0 0 0 0 0 0 0 0 0 0 0 0 0 0 0 0 0 0 0 0 0 0 0 0 0 0 0 0 0 0 0 0 0 0 0 0 0 0 0
0 0 0 0 0 0 0 0 0 0 0 0 0 0 0 0 0 0 0 0 0 0 0 0 0 0 0 0 0 0 0 0 0 0 0 0 0 0 0 0 0 0 0
0 0 0 0 0 0 0 0 0 0 0 0 0 0 0 0 0 0 0 0 0 0 0 0 0 0 0 0 0 0 0 0 0 0 0 0 0 0 0 0 0 0 0
0 0 0 0 0 0 0 0 0 0 0 0 0 0 0 0 0 0 0 0 0 0 0 0 0 0 0 0 0 0 0 0 0 0 0 0 0 0 0 0 0 0 0
0 0 0 0 0 0 0 0 0 0 0 0 0 0 0 0 0 0 0 0 0 0 0 0 0 0 0 0 0 0 0 0 0 0 0 0 0 0 0 0 0 0 0

GEFSMW_con_prob3kmehi_192.txt.gz
EHI
12 12 10 8 7 7 8 9 9 7 6 4 1 0 1 2 1 0 0 0 1 2 3 2 3 5 5 3 3 4 4 3 2 1 0 0 0 0 0 0 0 0 0
12 11 9 8 6 6 5 5 5 4 4 3 1 0 1 2 1 0 0 0 1 2 3 3 4 5 5 3 3 4 5 4 2 1 0 0 0 0 0 0 0 0 0
10 9 8 6 5 3 2 1 1 1 2 2 1 0 0 1 1 0 0 0 0 1 2 3 4 4 4 4 4 4 5 5 3 1 0 0 0 0 0 0 0 0 0
9 7 6 5 3 1 1 1 1 1 1 1 0 0 0 0 0 0 0 0 0 0 1 3 3 4 4 4 4 3 4 4 3 1 0 0 0 0 0 0 0 0 0
7 6 4 3 2 1 1 2 1 0 0 0 0 0 0 0 0 0 0 0 0 0 1 3 3 3 3 3 2 2 2 2 2 1 0 0 0 0 0 0 0 0 0
5 5 3 2 1 0 1 2 2 1 0 0 0 0 0 0 0 0 0 0 0 0 1 2 2 2 1 1 1 0 1 1 1 1 0 0 0 0 0 0 0 0 0
3 2 2 1 0 1 2 3 3 2 1 1 0 0 0 0 0 0 0 0 0 0 1 1 1 1 0 0 0 0 0 0 0 0 0 0 0 0 0 0 0 0 0
1 0 0 0 0 1 2 3 3 3 3 2 1 0 0 0 0 0 0 0 0 0 0 0 0 0 0 0 0 0 0 0 0 0 0 0 0 0 0 0 0 0 0
0 0 0 0 0 1 2 3 3 3 3 3 2 1 0 0 0 0 0 0 0 0 0 0 0 0 0 0 0 0 0 0 0 0 0 0 0 0 0 0 0 0 0
0 0 0 0 0 0 1 2 3 3 3 3 2 1 0 0 0 0 0 0 0 0 0 0 0 0 0 0 0 0 0 0 0 0 0 0 0 0 0 0 0 0 0
0 0 0 0 0 0 0 1 3 3 3 3 1 0 0 0 0 0 0 0 0 0 0 0 0 0 0 0 0 0 0 0 0 0 0 0 0 0 0 1 0 0 0
0 0 0 0 0 0 0 1 2 3 3 2 1 0 0 0 0 0 0 0 0 0 0 0 0 0 0 0 0 0 0 0 0 0 0 0 0 0 0 0 0 0 0
0 0 0 0 0 0 0 1 3 3 3 2 1 0 0 0 0 0 0 0 0 0 0 0 0 0 0 0 0 0 0 0 0 0 0 0 0 0 0 0 0 0 0
0 0 0 0 0 0 0 1 2 2 1 1 0 0 0 0 0 0 0 0 0 0 0 0 0 0 0 0 0 0 0 0 0 0 0 0 0 0 0 0 0 0 0
0 0 0 0 0 0 0 1 1 1 0 0 0 0 0 0 0 0 0 0 0 0 0 0 0 0 0 0 0 0 0 0 0 0 0 0 0 0 0 0 0 0 0
0 0 0 0 0 0 0 0 0 0 0 0 0 0 0 0 0 0 0 0 0 0 0 0 0 0 0 0 0 0 0 0 0 0 0 0 0 0 0 0 0 0 0
0 0 0 0 0 0 0 0 0 0 0 0 0 0 0 0 0 0 0 0 0 0 0 0 0 0 0 0 0 0 0 0 0 0 0 0 0 0 0 0 0 0 0
0 0 0 0 0 0 0 0 0 0 0 0 0 0 0 0 0 0 0 0 0 0 0 0 0 0 0 0 0 0 0 0 0 0 0 0 0 0 0 0 0 0 0
0 0 0 0 0 0 0 0 0 0 0 0 0 0 0 0 0 0 0 0 0 0 0 0 0 0 0 0 0 0 0 0 0 0 0 0 0 0 0 0 0 0 0
0 0 0 0 0 0 0 0 0 0 0 0 0 0 0 0 0 0 0 0 0 0 0 0 0 0 0 0 0 0 0 0 0 0 0 0 0 0 0 0 0 0 0
0 0 0 0 0 0 0 0 0 0 0 0 0 0 0 0 0 0 0 0 0 0 0 0 0 0 0 0 0 0 0 0 0 0 0 0 0 0 0 0 0 0 0
0 0 0 0 0 0 0 0 0 0 0 0 0 0 0 0 0 0 0 0 0 0 0 0 0 0 0 0 0 0 0 0 0 0 0 0 0 0 0 0 0 0 0
0 0 0 0 0 0 0 0 0 0 0 0 0 0 0 0 0 0 0 0 0 0 0 0 0 0 0 0 0 0 0 0 0 0 0 0 0 0 0 0 0 0 0
0 0 0 0 0 0 0 0 0 0 0 0 0 0 0 0 0 0 0 0 0 0 0 0 0 0 0 0 0 0 0 0 0 0 0 0 0 0 0 0 0 0 0
0 0 0 0 0 0 0 0 0 0 0 0 0 0 0 0 0 0 0 0 0 0 0 0 0 0 0 0 0 0 0 0 0 0 0 0 0 0 0 0 0 0 0
0 0 0 0 0 0 0 0 0 0 0 0 0 0 0 0 0 0 0 0 0 0 0 0 0 0 0 0 0 0 0 0 0 0 0 0 0 0 0 0 0 0 0

GEFSMW_con_prob3kmehi_198.txt.gz
EHI
15 16 17 17 18 17 15 14 16 18 19 20 18 15 10 8 9 7 5 6 6 4 4 7 11 14 15 13 11 12 10 7 8 7 5 4 4 3 3 3 4 3 3
16 17 19 19 18 16 13 13 15 17 17 17 17 14 10 8 7 6 5 5 4 4 4 5 10 13 15 13 13 14 11 8 8 9 7 6 5 3 2 3 4 2 1
15 16 18 18 17 14 11 12 14 15 13 14 13 11 8 6 5 5 4 4 4 5 5 6 8 11 13 13 14 15 14 10 8 9 8 6 5 3 3 3 3 2 1
12 13 14 14 13 11 10 10 12 12 10 10 9 8 6 3 2 2 2 3 4 6 7 7 8 9 10 11 12 12 14 11 8 7 6 4 4 4 4 3 3 2 1
10 11 11 10 8 7 6 7 9 10 7 6 5 6 5 2 0 1 1 1 4 6 6 7 9 9 9 9 9 10 11 10 8 6 5 2 2 3 4 3 2 1 0
8 9 9 7 4 3 3 4 6 8 6 4 3 4 4 2 1 2 1 1 2 4 5 6 8 9 7 7 7 7 6 6 7 6 4 1 1 3 3 3 2 1 1
5 6 6 5 3 2 2 3 4 5 4 3 3 3 3 3 3 3 2 1 0 2 3 4 5 5 5 4 5 4 3 3 3 3 2 0 1 3 3 3 3 3 3
2 4 5 5 2 1 2 2 2 2 2 2 3 4 3 3 3 3 3 1 1 1 1 2 2 2 2 2 2 3 3 3 2 1 0 0 0 1 2 3 3 3 3
1 3 5 5 2 0 1 1 1 1 1 2 3 4 4 3 3 3 3 2 1 0 0 0 0 1 1 1 2 2 2 3 3 1 0 0 0 0 1 2 2 2 2
1 3 5 4 1 0 0 0 1 2 2 3 3 4 4 3 3 3 3 2 1 0 0 0 0 0 0 1 1 1 1 1 1 0 0 0 0 0 1 1 1 1 2
0 1 3 3 1 0 0 1 1 3 3 4 5 6 5 4 4 3 3 1 0 0 0 0 0 0 0 0 0 0 0 0 0 0 0 0 0 0 0 0 0 1 2
0 1 1 1 0 0 0 1 2 3 3 4 6 7 7 6 5 3 2 1 0 0 0 0 0 0 0 0 0 0 0 0 0 0 0 0 0 0 0 0 1 2 2
0 0 0 0 0 0 0 1 3 3 4 5 6 7 7 7 6 3 1 0 0 0 0 0 0 0 0 0 0 0 0 0 0 0 0 0 0 0 0 0 1 1 1
0 0 0 0 0 0 0 1 2 3 3 4 5 6 6 7 5 3 1 0 0 0 0 0 0 0 0 0 0 0 0 0 0 0 0 0 0 0 0 0 0 0 0
0 0 0 0 0 0 0 1 2 3 3 3 4 4 5 5 4 2 1 0 0 0 0 0 0 0 0 0 0 0 0 0 0 0 0 0 0 0 0 0 0 0 0
0 0 0 0 0 0 0 0 1 2 3 3 3 3 4 3 2 1 0 0 0 0 0 0 0 0 0 0 0 0 0 0 0 0 0 0 0 0 0 0 0 0 0
0 0 0 0 0 0 0 0 1 1 2 2 2 2 2 1 1 0 0 0 0 0 0 0 0 1 1 0 0 0 0 0 0 0 0 0 0 0 0 0 0 0 0
0 0 0 0 0 0 0 0 0 0 0 1 1 1 1 0 0 0 0 0 0 1 0 0 1 1 1 0 0 0 0 0 0 0 0 0 0 0 0 0 0 0 0
1 1 0 0 0 0 0 0 0 0 0 0 0 0 0 0 0 0 0 0 0 0 0 0 0 1 1 1 0 0 0 0 0 0 0 0 0 0 0 0 0 0 0
2 1 0 0 0 0 0 0 0 0 0 0 0 0 0 0 0 0 0 0 0 0 0 0 0 1 1 1 0 0 0 0 0 0 0 0 0 0 0 0 0 0 0
1 1 0 1 1 1 0 0 0 0 0 0 0 0 0 0 0 0 0 0 0 0 0 0 0 0 0 0 0 0 0 0 0 0 0 0 0 0 0 0 0 0 0
0 0 0 1 2 2 1 0 0 0 0 0 0 0 0 0 1 1 1 0 0 0 0 1 0 0 0 0 0 0 0 0 0 0 0 0 0 0 0 0 0 0 0
0 0 0 1 2 3 2 1 0 0 0 0 0 0 0 1 2 2 1 0 0 0 0 0 0 0 0 0 0 0 0 0 0 0 0 0 0 0 0 0 0 0 0
0 0 0 0 1 2 2 1 0 0 0 0 0 0 0 1 2 2 1 0 0 0 0 0 0 0 0 0 0 0 0 0 0 0 0 0 0 0 0 0 0 0 0
1 0 0 0 0 1 1 0 0 0 0 0 0 0 0 0 1 1 0 0 0 0 0 0 0 0 0 0 0 0 0 0 0 0 0 0 0 0 0 0 0 0 0
1 1 0 0 0 0 0 0 0 1 1 1 0 0 0 0 0 0 0 0 0 0 0 0 0 0 0 0 0 0 0 0 0 0 0 0 0 0 0 0 0 0 0

GEFSMW_con_prob3kmehi_204.txt.gz
EHI
23 23 23 23 23 26 31 33 31 29 27 26 25 20 16 16 16 16 14 12 12 12 12 11 12 14 15 15 17 18 14 11 9 7 4 2 2 4 5 5 3 2 3
21 22 22 21 22 27 31 32 31 28 25 26 24 20 16 15 14 14 13 12 11 12 11 11 11 12 14 16 18 18 14 10 9 8 6 4 3 3 3 3 2 2 3
18 20 20 18 18 24 29 31 31 29 27 24 21 18 15 14 12 11 12 11 10 10 10 10 9 9 11 14 15 15 14 11 9 9 8 6 4 2 2 2 1 1 2
15 16 17 15 13 17 24 28 29 29 26 21 18 17 15 12 9 8 9 9 8 8 8 8 6 6 7 10 12 13 13 12 10 10 10 6 4 2 2 2 1 1 2
11 13 14 13 11 12 17 22 25 25 22 18 16 15 12 8 7 8 9 8 7 6 6 6 5 4 6 9 11 12 12 11 10 10 9 4 1 1 1 1 1 1 1
8 10 12 13 12 12 13 16 19 21 19 15 12 10 7 5 6 8 8 8 7 6 6 5 5 6 7 9 11 12 11 10 9 8 6 2 0 1 1 1 0 0 0
8 10 12 13 13 13 12 12 14 15 14 11 8 7 5 4 6 6 7 6 6 6 6 3 3 6 8 8 8 10 11 10 7 5 3 1 0 2 3 1 0 0 0
8 9 11 13 13 13 12 11 11 12 12 9 7 7 6 6 6 6 5 4 4 4 4 3 2 4 4 5 6 7 8 7 5 3 2 1 2 4 5 3 1 0 0
8 8 9 11 14 15 13 11 11 11 11 9 7 7 8 8 8 8 6 4 4 3 3 3 3 3 3 4 4 4 4 3 2 1 1 2 3 4 5 3 1 0 0
8 8 8 10 15 16 13 11 10 10 9 8 7 8 9 10 9 8 8 7 6 4 4 3 3 3 3 4 2 1 1 1 1 0 0 1 2 2 2 1 0 0 1
9 9 8 10 13 12 11 10 10 9 7 7 7 7 8 9 9 7 8 9 8 7 5 3 2 1 2 1 1 0 0 0 0 0 0 0 1 1 0 0 0 1 1
7 6 7 9 9 8 8 9 9 8 7 6 7 7 7 7 7 6 7 9 10 9 6 3 1 0 0 0 0 0 0 0 0 0 0 0 0 0 0 1 1 1 1
4 4 6 8 8 6 7 8 8 7 6 6 6 7 7 6 6 6 7 9 10 9 7 4 1 0 0 0 0 0 0 0 0 0 0 0 0 0 0 1 2 2 2
4 5 8 10 9 7 7 8 8 6 5 6 6 7 7 6 6 6 7 8 9 8 7 5 2 0 0 0 0 0 0 0 0 0 0 0 0 0 0 0 1 1 1
4 7 10 11 10 8 7 8 7 5 4 6 6 6 6 7 8 7 6 6 7 6 6 4 1 0 0 0 0 0 0 0 0 0 0 0 0 0 0 0 0 0 0
4 7 11 11 9 7 8 9 7 5 4 5 6 6 6 6 7 6 5 4 5 6 5 3 1 0 0 0 0 0 0 0 0 0 0 0 0 0 0 0 0 0 0
3 6 9 10 8 7 9 10 8 5 4 4 5 4 4 4 5 5 4 4 5 6 5 3 1 0 0 0 0 0 0 0 0 0 0 0 0 0 0 0 0 0 0
5 6 7 8 8 9 9 8 6 4 3 3 3 3 3 3 4 5 5 5 5 6 6 4 2 1 0 0 0 0 0 0 0 0 0 0 0 0 0 0 0 0 0
6 6 5 6 7 8 8 6 4 3 3 2 3 3 3 3 4 5 6 7 7 7 7 5 2 1 0 0 0 0 0 0 0 0 0 0 0 0 0 0 0 0 0
5 4 4 5 6 7 6 5 3 3 3 2 3 3 3 3 4 5 7 9 9 8 7 5 2 0 0 0 0 0 0 0 0 0 0 0 0 0 0 0 0 0 0
3 3 3 5 6 7 7 5 3 3 3 3 3 4 4 4 4 5 7 9 10 8 6 4 2 0 0 0 0 0 0 0 0 0 0 0 0 0 0 0 0 0 0
2 3 4 6 7 8 7 5 4 3 3 3 4 6 6 5 4 4 7 9 10 7 5 3 1 0 0 0 0 0 0 0 0 0 0 0 0 0 0 0 0 0 0
3 3 4 6 7 7 7 5 4 4 3 4 5 6 6 5 4 4 6 8 9 7 4 2 0 0 0 0 0 0 0 0 0 0 0 0 0 0 0 0 0 0 0
5 4 4 5 6 6 6 5 5 4 4 3 4 4 4 4 4 4 5 6 7 6 5 3 1 0 0 0 0 0 0 0 0 0 0 0 0 0 0 0 0 0 0
4 4 4 3 4 5 6 6 6 5 4 4 3 3 3 3 4 4 5 5 5 5 5 3 1 0 1 0 0 0 0 0 0 0 0 0 0 0 0 0 0 0 0
2 3 3 2 2 4 6 6 6 6 5 5 4 3 3 3 4 4 4 4 4 3 2 2 1 0 1 0 0 0 0 0 0 0 0 0 0 0 0 0 0 0 0

GEFSMW_con_prob3kmehi_210.txt.gz
EHI
15 16 14 12 11 9 6 4 4 5 7 9 9 7 6 5 4 3 1 0 0 0 0 0 0 0 0 0 0 0 0 0 0 0 0 0 0 0 0 0 0 0 0
15 15 14 12 11 9 8 6 5 5 7 8 8 7 6 5 3 2 1 0 0 0 0 0 0 0 0 0 0 0 0 0 0 0 0 0 0 0 0 0 0 0 0
14 14 14 13 12 11 10 9 7 6 6 6 6 6 6 4 3 1 1 1 1 0 0 0 0 0 0 0 0 0 0 0 0 0 0 0 0 0 0 0 0 0 0
11 13 14 13 11 11 11 9 7 5 4 4 4 4 4 3 2 1 1 1 2 1 0 0 0 0 0 0 0 0 0 0 0 0 0 0 0 0 0 0 0 0 0
8 11 12 10 9 9 9 8 6 4 3 3 2 1 1 1 1 1 0 1 1 1 0 0 0 0 0 0 0 0 0 0 0 0 0 0 0 0 0 0 0 0 0
6 8 9 9 8 8 8 8 6 4 2 1 1 0 0 0 0 0 0 0 0 0 0 0 0 0 0 0 0 0 0 0 0 0 0 0 0 0 0 0 0 0 0
5 7 8 8 8 8 8 7 5 2 1 0 0 0 0 0 0 0 0 0 0 0 0 0 0 0 0 0 0 0 0 0 0 0 0 0 0 0 0 0 0 0 0
5 6 7 8 8 7 6 5 2 1 0 0 0 0 0 0 0 0 0 0 0 0 0 0 0 0 0 0 0 0 0 0 0 0 0 0 0 0 0 0 0 0 0
3 4 6 8 8 7 5 2 0 0 0 0 0 0 0 0 0 0 0 0 0 0 0 0 0 0 0 0 0 0 0 0 0 0 0 0 0 0 0 0 0 0 0
1 3 6 7 6 5 4 2 1 1 0 0 0 0 0 0 0 0 0 0 0 0 0 0 0 0 0 0 0 0 0 0 0 0 0 0 0 0 0 0 0 0 0
0 2 5 5 4 4 3 3 2 2 1 1 0 0 0 0 0 0 0 0 0 0 0 0 0 0 0 0 0 0 0 0 0 0 0 0 0 0 0 0 0 0 0
0 2 4 4 3 3 3 3 3 3 3 2 1 1 1 1 1 1 1 0 0 0 0 0 0 0 0 0 0 0 0 0 0 0 0 0 0 0 0 0 0 0 0
1 2 3 3 3 3 3 3 3 3 3 3 3 2 2 2 2 2 2 1 0 0 0 0 0 0 0 0 0 0 0 0 0 0 0 0 0 0 0 0 0 0 0
1 2 3 2 3 3 3 3 3 3 3 3 3 3 3 3 3 3 2 1 0 0 0 0 0 0 0 0 0 0 0 0 0 0 0 0 0 0 0 0 0 0 0
1 1 1 1 1 2 3 3 3 3 3 3 3 3 3 3 3 3 3 1 0 0 0 0 0 0 0 0 0 0 0 0 0 0 0 0 0 0 0 0 0 0 0
1 1 1 0 0 1 2 3 3 3 3 3 3 3 3 3 3 3 3 2 1 0 0 0 0 0 0 0 0 0 0 0 0 0 0 0 0 0 0 0 0 0 0
3 2 2 1 1 0 1 1 2 2 3 3 3 3 3 3 3 3 3 3 2 1 0 0 0 0 0 0 0 0 0 0 0 0 0 0 0 0 0 0 0 0 0
3 2 1 1 1 0 0 0 1 1 1 2 2 3 3 3 3 3 3 3 2 1 0 0 0 0 0 0 0 0 0 0 0 0 0 0 0 0 0 0 0 0 0
1 1 0 1 1 0 0 0 0 0 0 0 1 2 3 3 3 3 3 3 2 1 0 0 0 0 0 0 0 0 0 0 0 0 0 0 0 0 0 0 0 0 0
0 0 0 0 0 0 0 0 0 0 0 0 1 2 3 3 3 3 3 3 3 1 0 0 0 0 0 0 0 0 0 0 0 0 0 0 0 0 0 0 0 0 0
0 0 0 0 0 0 0 0 0 0 0 0 0 1 2 3 3 3 3 3 3 2 1 0 0 0 0 0 0 0 0 0 0 0 0 0 0 0 0 0 0 0 0
0 0 0 0 0 0 0 0 0 0 0 0 0 0 1 2 3 3 3 3 3 3 2 1 0 0 0 0 0 0 0 0 0 0 0 0 0 0 0 0 0 0 0
0 0 0 0 0 0 0 0 0 0 0 0 0 0 0 1 1 2 3 3 3 3 3 2 1 0 0 0 0 0 0 0 0 0 0 0 0 0 0 0 0 0 0
0 0 0 0 0 0 0 0 0 0 0 0 0 0 0 0 0 1 2 2 2 3 3 3 2 1 0 0 0 0 0 0 0 0 0 0 0 0 0 0 0 0 0
0 0 0 0 0 0 0 0 0 0 0 0 0 0 0 0 0 0 1 1 1 1 2 2 2 1 0 0 0 0 0 0 0 0 0 0 0 0 0 0 0 0 0
0 0 0 0 0 0 0 0 0 0 0 0 0 0 0 0 0 0 0 0 0 0 1 1 1 0 0 0 0 0 0 0 0 0 0 0 0 0 0 0 0 0 0

GEFSMW_con_prob3kmehi_216.txt.gz
EHI
4 4 5 6 7 6 4 2 1 0 0 1 2 3 3 3 3 3 3 3 2 1 0 0 0 0 0 0 0 0 0 0 0 0 0 0 0 0 0 0 0 0 0
4 5 7 8 8 6 4 2 0 0 0 1 3 3 3 3 3 3 3 2 1 0 0 0 0 0 0 0 0 0 0 0 0 0 0 0 0 0 0 0 0 0 0
5 7 9 10 9 7 5 2 1 0 1 2 3 3 3 2 3 3 2 1 0 0 0 0 0 0 0 0 0 0 0 0 0 0 0 0 0 0 0 0 0 0 0
4 6 9 10 9 7 5 3 1 0 2 3 3 3 3 3 2 2 1 0 0 0 0 0 0 0 0 0 0 0 0 0 0 0 0 0 0 0 0 0 0 0 0
2 4 7 9 8 7 6 3 0 0 1 3 3 3 3 2 1 1 0 0 0 0 0 0 0 0 0 0 0 0 0 0 0 0 0 0 0 0 0 0 0 0 0
0 2 6 8 7 7 6 4 1 0 1 2 2 2 2 1 0 0 0 0 0 0 0 0 0 0 0 0 0 0 0 0 0 0 0 0 0 0 0 0 0 0 0
0 2 5 7 7 7 7 5 2 0 0 1 1 1 1 0 0 0 0 0 0 0 0 0 0 0 0 0 0 0 0 0 0 0 0 0 0 0 0 0 0 0 0
0 1 4 6 6 6 7 6 2 0 0 0 0 0 0 0 0 0 0 0 0 0 0 0 0 0 0 0 0 0 0 0 0 0 0 0 0 0 0 0 0 0 0
0 0 2 5 6 6 7 6 3 1 0 0 0 0 0 0 0 0 0 0 0 0 0 0 0 0 0 0 0 0 0 0 0 0 0 0 0 0 0 0 0 0 0
0 0 1 3 6 6 6 5 4 2 1 0 0 0 0 0 0 0 0 0 0 0 0 0 0 0 0 0 0 0 0 0 0 0 0 0 0 0 0 0 0 0 0
0 0 0 2 4 5 4 4 3 3 1 0 0 0 0 0 0 0 0 0 0 0 0 0 0 0 0 0 0 0 0 0 0 0 0 0 0 0 0 0 0 0 0
0 0 0 1 3 4 3 3 3 3 2 1 0 0 0 0 0 0 0 0 0 0 0 0 0 0 0 0 0 0 0 0 0 0 0 0 0 0 0 0 0 0 0
0 0 0 1 2 2 2 2 2 3 3 2 1 1 1 1 0 0 0 0 0 0 0 0 0 0 0 0 0 0 0 0 0 0 0 0 0 0 0 0 0 0 0
0 0 0 0 1 1 1 1 1 1 2 3 3 2 2 2 1 0 0 0 0 0 0 0 0 0 0 0 0 0 0 0 0 0 0 0 0 0 0 0 0 0 0
0 0 0 0 0 0 0 0 0 0 1 2 2 2 3 3 2 1 1 0 0 0 0 0 0 0 0 0 0 0 0 0 0 0 0 0 0 0 0 0 0 0 0
0 0 0 0 0 0 0 0 0 0 0 1 1 1 2 3 3 3 2 1 1 1 0 0 0 0 0 0 0 0 0 0 0 0 0 0 0 0 0 0 0 0 0
0 0 0 0 0 0 0 0 0 0 0 0 0 1 2 3 3 3 3 3 2 2 1 0 0 0 0 0 0 0 0 0 0 0 0 0 0 0 0 0 0 0 0
0 0 0 0 0 0 0 0 0 0 0 0 0 1 1 2 3 3 3 3 3 3 2 1 1 0 0 0 0 0 0 0 0 0 0 0 0 0 0 0 0 0 0
0 0 0 0 0 0 0 0 0 0 0 0 0 0 0 1 1 2 2 2 2 3 3 3 2 1 1 0 0 0 0 0 0 0 0 0 0 0 0 0 0 0 0
0 0 0 0 0 0 0 0 0 0 0 0 0 0 0 0 0 1 1 1 1 1 2 3 3 3 2 1 0 0 0 0 0 0 0 0 0 0 0 0 0 0 0
0 0 0 0 0 0 0 0 0 0 0 0 0 0 0 0 0 0 0 0 0 0 1 1 2 2 2 1 0 0 0 0 0 0 0 0 0 0 0 0 0 0 0
0 0 0 0 0 0 0 0 0 0 0 0 0 0 0 0 0 0 0 0 0 0 0 0 1 1 1 0 0 0 0 0 0 0 0 0 0 0 0 0 0 0 0
0 0 0 0 0 0 0 0 0 0 0 0 0 0 0 0 0 0 0 0 0 0 0 0 0 0 0 0 0 0 0 0 0 0 0 0 0 0 0 0 0 0 0
0 0 0 0 0 0 0 0 0 0 0 0 0 0 0 0 0 0 0 0 0 0 0 0 0 0 0 0 0 0 0 0 0 0 0 0 0 0 0 0 0 0 0
0 0 0 0 0 0 0 0 0 0 0 0 0 0 0 0 0 0 0 0 0 0 0 0 0 0 0 0 0 0 0 0 0 0 0 0 0 0 0 0 0 0 0
0 0 0 0 0 0 0 0 0 0 0 0 0 0 0 0 0 0 0 0 0 0 0 0 0 0 0 0 0 0 0 0 0 0 0 0 0 0 0 0 0 0 0

GEFSMW_con_prob3kmehi_222.txt.gz
EHI
14 13 11 9 11 16 19 19 19 20 21 20 18 15 12 8 6 6 6 5 4 3 3 4 6 8 9 10 9 8 8 8 9 9 8 9 9 8 8 8 5 3 3
12 12 12 11 12 15 18 19 18 18 18 18 16 14 11 8 6 6 6 5 4 3 3 4 6 7 8 8 7 7 8 8 8 8 7 7 8 7 6 5 3 2 3
9 11 13 14 13 13 14 16 17 18 17 16 14 12 11 8 7 6 6 6 5 4 3 4 5 6 6 6 5 5 6 8 8 7 5 5 6 6 5 2 1 1 3
9 10 13 14 14 13 13 14 17 18 18 16 14 12 12 10 8 7 7 7 6 4 3 3 4 4 4 4 4 4 5 7 8 6 4 4 4 4 4 3 3 3 3
9 10 12 13 14 14 15 17 18 18 17 15 14 14 13 11 9 7 7 7 7 5 4 3 3 3 3 3 4 3 4 6 7 6 5 5 5 3 3 4 4 5 4
10 10 11 12 14 15 17 19 20 17 13 12 14 15 13 11 10 8 7 6 5 5 4 3 3 3 3 4 4 3 3 4 6 7 6 5 6 5 4 3 4 5 5
10 10 10 11 13 15 17 19 20 16 11 9 12 14 12 10 8 8 7 5 4 4 4 4 3 3 3 3 2 1 2 4 7 7 6 6 7 7 5 3 3 4 4
10 10 10 10 13 16 17 19 19 17 13 11 12 12 10 6 5 6 6 5 4 3 3 3 3 3 3 2 1 0 1 4 5 6 6 7 8 8 7 5 4 4 3
9 9 9 11 14 17 18 19 19 17 15 14 13 11 8 5 4 5 6 5 4 3 2 3 3 3 3 2 1 0 1 2 3 5 6 7 6 7 8 8 6 4 4
8 9 9 12 16 19 18 18 17 16 14 14 12 9 8 7 6 6 5 4 3 3 3 3 3 3 3 3 2 1 0 1 2 3 4 4 4 6 7 8 7 6 6
7 8 10 13 17 18 17 16 15 13 11 10 10 8 7 7 6 6 5 5 5 4 4 4 4 4 4 4 3 1 0 0 0 1 1 1 2 4 5 6 6 5 5
7 8 9 11 14 15 14 14 12 10 8 8 8 8 6 6 6 7 7 6 6 6 6 6 6 5 5 4 3 1 0 0 0 0 0 0 1 2 3 4 3 2 3
6 7 8 9 11 12 12 12 11 9 7 7 7 6 6 6 7 8 8 7 7 7 7 7 7 6 5 4 3 2 1 1 1 1 0 0 0 1 1 1 0 0 1
6 7 8 9 10 10 11 11 10 9 7 6 6 5 4 5 6 7 7 7 7 7 7 6 6 6 5 4 3 3 3 2 2 2 1 1 0 0 0 0 0 0 0
5 5 7 8 9 10 10 10 9 8 6 5 4 3 3 3 4 5 6 6 6 5 5 4 3 4 4 3 3 3 3 3 3 3 3 2 1 0 0 0 0 0 0
2 3 5 7 8 9 9 8 7 5 3 2 1 1 1 1 1 3 3 3 3 3 2 1 1 2 2 2 1 1 2 3 3 3 3 3 1 0 0 0 0 0 0
2 3 5 6 7 7 7 6 4 2 1 0 0 0 0 0 0 1 1 1 1 1 0 0 0 1 1 1 0 0 1 1 2 3 3 3 2 1 1 1 0 0 0
3 4 5 6 6 6 5 4 3 1 0 0 0 0 0 0 0 0 0 0 0 0 0 0 0 1 1 1 0 0 0 0 1 1 2 3 3 2 2 1 0 0 0
3 3 4 4 4 4 4 3 2 1 0 0 0 0 0 0 0 0 0 0 0 0 0 0 0 1 1 1 0 0 0 0 0 0 1 1 2 1 1 1 0 0 0
2 2 2 3 3 4 3 2 1 0 0 0 0 0 0 0 0 0 0 0 0 0 0 0 0 0 0 0 0 0 0 0 0 0 0 0 0 0 0 0 0 0 0
2 1 1 1 2 2 1 1 0 0 0 0 0 0 0 0 0 0 0 0 0 0 0 0 0 0 0 0 0 0 0 0 0 0 0 0 0 0 0 0 0 0 0
1 1 1 1 1 1 0 0 0 0 0 0 0 0 0 0 0 0 0 0 0 0 0 0 0 0 0 0 0 0 0 0 0 0 0 0 0 0 0 0 0 0 0
0 1 1 0 0 0 0 0 0 0 0 0 0 0 0 0 0 0 0 0 0 0 0 0 0 0 0 0 0 0 0 0 0 0 0 0 0 0 0 0 0 0 0
1 2 1 1 1 0 0 0 0 0 0 0 0 0 0 0 0 0 0 0 0 0 0 0 0 0 0 0 0 0 0 0 0 0 0 0 0 0 0 0 0 0 0
2 2 2 1 1 0 0 0 0 0 0 0 0 0 0 0 0 0 0 0 0 0 0 0 0 0 0 0 0 0 0 0 0 0 0 0 0 0 0 0 0 0 0
3 2 1 1 0 0 0 0 0 0 0 0 0 0 0 0 0 0 0 0 0 0 0 0 0 0 0 0 0 0 0 0 0 0 0 0 0 0 0 0 0 0 0

GEFSMW_con_prob3kmehi_228.txt.gz
EHI
31 34 38 37 34 34 34 33 32 31 29 29 29 28 28 28 25 22 19 17 16 14 11 8 8 9 9 10 9 8 7 5 3 2 1 1 2 4 4 6 7 7 7
32 34 36 35 32 32 31 32 32 29 27 27 26 26 27 26 24 21 20 18 16 13 9 7 7 8 8 9 9 8 6 4 3 2 2 1 2 3 4 5 7 7 7
30 30 31 31 28 26 26 28 31 30 28 26 25 24 24 23 22 20 20 18 15 11 8 6 7 8 8 8 8 7 6 4 3 3 2 1 2 3 4 4 5 7 7
24 24 26 26 24 22 23 25 29 30 29 28 26 25 23 21 19 18 17 15 13 10 7 6 7 8 8 7 7 7 7 4 3 2 1 1 2 3 3 2 3 4 5
18 20 22 22 22 21 21 23 25 28 28 27 28 27 24 20 17 16 14 12 11 9 7 6 7 7 8 7 7 7 6 4 3 2 1 1 2 2 1 0 0 1 1
14 17 19 21 21 21 21 20 21 23 24 25 26 26 23 20 18 16 12 10 9 9 8 7 7 7 7 7 7 7 5 4 3 2 1 1 1 1 0 0 0 0 1
12 15 18 21 21 21 20 20 20 21 21 22 23 23 21 18 18 16 11 8 7 8 9 8 8 7 7 6 6 5 4 3 3 2 1 1 1 1 0 0 0 1 2
13 14 17 20 21 20 20 20 20 20 20 20 20 20 19 16 15 15 10 7 7 8 9 9 9 8 7 6 5 4 3 3 3 2 1 0 0 0 0 0 0 1 2
15 15 16 18 19 19 20 21 20 20 20 19 19 19 17 13 11 12 10 7 7 8 9 9 8 7 6 5 5 4 4 4 4 3 1 0 0 0 0 0 0 0 1
13 13 15 17 18 19 21 21 19 19 19 19 18 17 14 10 9 9 9 8 9 9 9 9 7 6 6 6 6 5 5 5 5 3 1 1 1 0 0 0 0 0 0
8 10 12 15 17 19 20 19 18 17 17 17 17 15 12 9 8 7 8 9 9 10 9 8 7 6 6 6 6 6 6 6 5 2 1 2 3 2 0 0 0 0 1
5 7 10 13 17 19 18 17 17 15 15 15 16 15 14 11 9 7 7 8 9 9 9 7 5 5 6 6 6 6 6 5 4 3 2 3 4 3 1 1 1 1 2
5 8 12 15 17 18 17 16 15 14 14 14 15 15 15 13 10 8 8 7 7 8 7 5 3 4 4 5 4 4 4 4 4 3 3 4 4 3 2 1 1 2 2
9 12 16 17 18 17 17 15 15 14 14 13 13 13 13 12 10 9 8 6 5 4 4 3 3 3 3 4 3 3 3 3 3 3 3 4 3 3 3 2 1 1 1
10 12 15 15 16 15 14 13 13 13 13 12 11 10 10 9 8 7 6 5 3 3 3 3 3 3 3 3 3 3 3 3 3 3 3 3 3 3 2 1 1 0 0
7 9 10 12 13 13 11 10 10 11 11 9 7 6 5 5 4 3 2 3 3 2 2 2 2 3 3 2 1 1 2 3 3 3 3 3 2 2 1 1 0 0 0
5 6 9 11 12 12 10 9 9 9 8 6 4 2 2 2 2 1 0 1 1 1 1 1 1 1 2 1 0 0 1 2 3 3 3 2 2 1 1 0 0 0 0
6 8 9 10 11 11 10 10 8 7 5 3 1 1 0 0 0 0 0 0 0 0 0 0 0 0 0 0 0 0 0 1 2 2 2 2 1 1 0 0 0 0 0
6 8 9 9 9 9 9 8 6 4 3 1 0 0 0 0 0 0 0 0 0 0 0 0 0 0 0 0 0 0 0 0 1 1 1 1 1 0 0 0 0 0 0
4 5 7 8 8 8 8 6 4 3 2 1 0 0 0 0 0 0 0 0 0 0 0 0 0 0 0 0 0 0 0 0 0 0 0 0 0 0 0 0 0 0 0
3 4 6 7 7 6 6 4 2 1 1 0 0 0 0 0 0 0 0 0 0 0 0 0 1 0 0 0 0 0 0 0 0 0 0 0 0 0 0 0 0 0 0
4 5 7 7 7 6 4 2 1 0 0 0 0 0 0 0 0 0 0 1 1 1 0 0 1 0 0 0 0 0 0 0 0 0 0 0 0 0 0 0 0 0 0
4 5 5 6 6 5 3 2 0 0 0 0 1 1 0 0 1 1 1 2 2 2 1 0 1 2 2 1 1 1 0 0 0 0 0 0 0 0 0 0 0 0 0
5 4 4 4 4 3 2 1 0 0 0 0 1 1 0 0 1 2 2 2 3 3 1 0 1 3 4 3 2 2 1 0 0 0 0 0 0 0 0 0 0 0 0
5 5 4 3 2 1 1 1 0 0 0 0 1 1 0 0 1 2 2 2 3 2 1 0 1 2 3 2 1 2 1 0 0 0 0 0 0 0 0 0 0 0 0
6 6 5 3 1 0 0 0 0 0 0 0 0 0 0 0 0 1 1 1 2 1 0 0 0 1 1 0 0 1 1 0 0 0 0 0 0 0 0 0 0 0 0

GEFSMW_con_prob3kmehi_234.txt.gz
EHI
23 25 25 24 23 22 21 20 19 19 19 19 17 16 13 11 10 10 10 9 8 6 5 4 4 4 4 4 2 1 0 0 0 0 0 0 0 0 0 0 0 0 0
24 24 24 21 19 19 19 19 19 19 19 18 18 16 13 11 10 10 10 9 8 6 6 5 5 5 4 4 3 1 1 1 0 0 0 0 0 0 0 0 0 0 0
22 21 20 18 15 16 17 17 17 17 17 16 16 15 13 11 9 9 9 9 7 6 6 6 5 4 4 3 3 3 2 2 1 0 0 0 0 0 0 0 0 0 0
17 18 19 17 14 15 17 17 16 16 16 15 14 14 12 10 8 8 7 7 6 5 6 5 4 3 3 3 3 3 3 3 2 1 0 0 0 0 0 0 0 0 0
13 15 18 17 15 15 18 18 17 16 16 15 14 13 11 9 7 7 6 4 3 3 4 4 3 3 3 3 2 3 3 3 3 2 1 0 0 0 0 0 0 0 0
10 12 16 17 16 16 17 18 16 16 15 15 14 12 10 8 7 6 5 3 2 2 3 3 3 3 3 2 1 2 3 3 3 2 1 0 0 0 0 0 0 0 0
9 11 15 16 16 16 15 15 15 14 13 13 13 12 10 8 7 5 4 3 3 3 3 3 3 3 3 3 2 2 3 3 3 2 1 0 0 0 0 0 0 0 0
10 12 14 15 15 14 13 13 13 12 11 11 11 10 9 7 6 4 3 3 3 3 3 3 3 3 3 3 3 3 3 2 1 1 0 0 0 0 0 0 0 0 0
12 12 13 13 12 12 13 12 11 9 9 8 8 8 7 7 6 4 3 3 3 3 3 3 3 3 3 3 3 3 2 1 0 0 0 0 1 0 0 0 0 0 0
12 12 11 10 9 9 10 10 8 7 7 7 6 6 6 6 6 4 3 3 3 2 2 2 2 2 2 2 2 1 1 0 0 0 0 0 0 0 0 0 0 0 0
9 9 9 8 6 6 7 7 7 6 6 6 6 6 6 6 5 3 2 2 1 1 1 1 1 1 1 1 1 0 0 0 0 0 0 0 0 0 0 0 0 0 0
5 5 6 5 4 4 4 5 6 6 6 6 6 5 4 4 3 2 1 1 0 0 0 0 0 0 0 0 0 0 0 0 0 0 0 0 0 0 0 0 0 0 0
3 3 3 3 2 1 2 4 6 6 7 7 6 4 3 3 2 1 0 0 0 0 0 0 0 0 0 0 0 0 0 0 0 0 0 0 0 0 0 0 0 0 0
2 2 1 1 0 0 1 3 6 7 8 8 6 4 3 2 1 0 0 0 0 0 0 0 0 0 0 0 0 0 0 0 0 0 0 0 0 0 0 0 0 0 0
1 1 0 0 0 1 2 4 6 7 9 8 6 4 2 1 0 0 0 0 0 0 0 0 0 0 0 0 0 0 0 0 0 0 0 0 0 0 0 0 0 0 0
1 1 1 1 0 1 3 4 5 6 7 7 4 2 1 0 0 0 0 0 0 0 0 0 0 0 0 0 0 0 0 0 0 0 0 0 0 0 0 0 0 0 0
2 2 2 2 2 2 3 3 4 4 4 3 2 1 0 0 0 0 0 0 0 0 0 0 0 0 0 0 0 0 0 0 0 0 0 0 0 0 0 0 0 0 0
3 3 3 3 3 3 3 3 3 3 3 1 0 0 0 0 0 0 0 0 0 0 0 0 0 0 0 0 0 0 0 0 0 0 0 0 0 0 0 0 0 0 0
3 3 4 3 3 3 3 3 3 3 2 1 0 0 0 0 0 0 0 0 0 0 0 0 0 0 0 0 0 0 0 0 0 0 0 0 0 0 0 0 0 0 0
4 4 5 4 3 3 3 3 3 2 1 0 0 0 0 0 0 0 0 0 0 0 0 0 0 0 0 0 0 0 0 0 0 0 0 0 0 0 0 0 0 0 0
5 5 5 4 3 2 2 2 1 1 0 0 0 0 0 0 0 0 0 0 0 0 0 0 0 0 0 0 0 0 0 0 0 0 0 0 0 0 0 0 0 0 0
6 5 4 3 2 1 1 1 0 0 0 0 0 0 0 0 0 0 0 0 0 0 0 0 0 0 0 0 0 0 0 0 0 0 0 0 0 0 0 0 0 0 0
5 4 3 3 2 1 0 0 0 0 0 0 0 0 0 0 0 0 0 0 0 0 0 0 0 0 0 0 0 0 0 0 0 0 0 0 0 0 0 0 0 0 0
4 3 3 2 1 0 0 0 0 0 0 0 0 0 0 0 0 0 0 0 0 0 0 0 0 0 0 0 0 0 0 0 0 0 0 0 0 0 0 0 0 0 0
2 2 1 1 0 0 0 0 0 0 0 0 0 0 0 0 0 0 0 0 0 0 0 0 0 0 0 0 0 0 0 0 0 0 0 0 0 0 0 0 0 0 0
1 1 0 0 0 0 0 0 0 0 0 0 0 0 0 0 0 0 0 0 0 0 0 0 0 0 0 0 0 0 0 0 0 0 0 0 0 0 0 0 0 0 0

GEFSMW_con_prob3kmehi_240.txt.gz
EHI
8 8 10 13 14 12 11 10 7 5 6 6 5 4 3 3 3 2 2 2 2 2 2 2 2 2 2 2 2 2 2 1 1 1 1 0 0 0 0 0 0 0 0
8 9 11 13 12 10 11 11 8 6 6 6 5 4 3 3 2 1 1 1 1 1 1 1 1 1 1 1 1 1 1 1 0 0 0 0 0 0 0 0 0 0 0
8 10 12 13 11 9 11 12 9 6 6 6 5 4 3 2 1 1 0 0 1 1 0 0 0 1 1 1 1 2 2 2 1 0 0 0 0 0 0 0 0 0 0
8 10 12 13 12 9 9 9 7 6 6 6 6 5 4 3 2 2 1 1 2 2 1 1 1 2 2 2 2 2 3 3 1 1 0 0 0 0 0 0 0 0 0
7 8 10 11 11 8 6 5 5 5 6 8 8 7 5 4 3 3 1 1 2 2 2 2 3 3 3 3 3 3 3 3 3 2 1 1 1 1 0 0 0 0 0
6 7 8 9 9 7 6 6 5 6 8 10 9 8 6 4 3 3 2 2 1 1 2 2 3 3 3 3 3 3 3 3 3 3 3 2 2 2 1 0 0 0 0
5 6 8 8 7 6 7 7 8 9 10 8 6 6 5 4 3 2 2 1 0 0 1 1 1 2 2 3 3 3 3 3 3 3 3 3 3 3 2 1 1 0 0
4 5 8 8 7 7 7 8 8 8 7 5 3 3 3 3 2 1 1 0 0 0 0 0 1 1 2 2 3 3 2 2 2 3 3 3 3 3 3 3 2 1 0
4 6 8 8 8 8 8 8 7 6 4 2 2 2 2 3 2 1 1 0 0 0 0 0 1 2 2 2 2 1 1 1 2 2 2 2 2 2 2 2 2 1 0
5 6 7 8 7 7 7 7 7 4 3 1 1 1 2 2 2 2 1 0 0 0 0 0 1 1 1 1 1 0 0 1 2 2 2 1 1 1 1 1 1 0 0
4 5 5 5 5 4 4 4 4 3 2 1 0 0 1 1 1 1 1 0 0 0 0 0 0 0 0 0 0 0 0 1 1 1 1 0 0 0 0 0 0 0 0
3 3 3 3 4 3 3 2 1 1 1 0 0 0 0 0 0 0 0 0 0 0 0 0 0 0 0 0 0 0 0 0 0 0 0 0 0 0 0 0 0 0 0
2 1 1 2 2 2 2 1 1 0 0 0 0 0 0 0 0 0 0 0 0 0 0 0 0 0 0 0 0 0 0 0 0 0 0 0 0 0 0 0 0 0 0
1 0 0 1 1 1 0 0 0 0 0 0 0 0 0 0 0 0 0 0 0 0 0 0 0 0 0 0 0 0 0 0 0 0 0 0 0 0 0 0 0 0 0
0 0 0 0 0 0 0 0 0 0 0 0 0 0 0 0 0 0 0 0 0 0 0 0 0 0 0 0 0 0 0 0 0 0 0 0 0 0 0 0 0 0 0
0 0 0 0 0 0 0 0 0 0 0 0 0 0 0 0 0 1 1 0 0 0 0 0 0 0 0 0 0 0 0 0 0 0 0 0 0 0 0 0 0 0 0
0 0 0 0 0 0 0 0 1 1 0 0 0 0 0 0 0 1 1 0 0 0 0 0 0 0 0 0 0 0 0 0 0 0 0 0 0 0 0 0 0 0 0
0 0 0 0 0 0 0 1 2 2 1 0 0 0 0 0 0 1 1 0 0 0 0 0 0 0 0 0 0 0 0 0 0 0 0 0 0 0 0 0 0 0 0
0 0 0 0 0 0 1 2 3 3 2 1 0 0 0 0 0 0 0 0 0 0 0 0 0 0 0 0 0 0 0 0 0 0 0 0 0 0 0 0 0 0 0
0 0 0 0 0 0 1 3 3 3 3 2 1 1 0 0 0 0 0 0 0 0 0 0 0 0 0 0 0 0 0 0 0 0 0 0 0 0 0 0 0 0 0
1 1 1 0 0 1 2 3 3 3 3 3 2 1 0 0 0 0 0 0 0 0 0 0 0 0 0 0 0 0 0 0 0 0 0 0 0 0 0 0 0 0 0
2 2 2 1 1 2 3 3 3 2 2 2 1 0 0 0 0 0 0 0 0 0 0 0 0 0 0 0 0 0 0 0 0 0 0 0 0 0 0 0 0 0 0
3 3 3 3 3 3 3 2 1 1 1 1 0 0 0 0 0 0 0 0 0 0 0 0 0 0 0 0 0 0 0 0 0 0 0 0 0 0 0 0 0 0 0
3 3 3 3 3 3 1 1 0 0 0 0 0 0 0 0 0 0 0 0 0 0 0 0 0 0 0 0 0 0 0 0 0 0 0 0 0 0 0 0 0 0 0
3 3 3 3 3 2 1 0 0 0 0 0 0 0 0 0 0 0 0 0 0 0 0 0 0 0 0 0 0 0 0 0 0 0 0 0 0 0 0 0 0 0 0
3 3 3 3 3 1 0 0 0 0 0 0 0 0 0 0 0 0 0 0 0 0 0 0 0 0 0 0 0 0 0 0 0 0 0 0 0 0 0 0 0 0 0